Hourly Data Report for July 27, 2021

RANKIN INLET A
NUNAVUT
Current Station Operator: NAVCAN

62°48'38.000" N
92°06'53.000" W
32.30 m
2303405
71083
YRT

Download Data

Hourly Data (July 2021)
Hourly Data Report for July 27, 2021
TIME
LST
Temp Definition
°C
Dew Point Definition
°C
Rel Hum Definition
%
Precip. Amount Definition
mm

Wind Dir Definition
10's deg

Wind Spd Definition
km/h
Visibility Definition
km
Stn Press Definition
kPa
Hmdx Definition


Wind Chill Definition


Weather Definition


00:00 7.3 3.2 75   31 12 24.1 99.93     Mostly Cloudy
01:00 6.7 3.0 77   31 12 24.1 99.95     LegendNANA
02:00 6.4 2.3 75   30 11 24.1 99.96     LegendNANA
03:00 5.9 3.1 82   26 9 24.1 99.95     Mostly Cloudy
04:00 6.3 4.6 88   27 9 24.1 99.96     LegendNANA
05:00 6.5 4.8 89   26 8 24.1 99.98     LegendNANA
06:00 7.1 4.7 85   29 8 24.1 100.00     Mostly Cloudy
07:00 7.2 4.9 85   29 5 24.1 99.99     Rain
08:00 7.7 4.2 79   32 9 24.1 99.99     Rain
09:00 8.1 3.9 75   33 3 24.1 99.97     Mostly Cloudy
10:00 9.0 3.7 69   35 7 24.1 100.00     LegendNANA
11:00 10.2 2.5 59   36 9 24.1 100.02     LegendNANA
12:00 10.8 3.2 59   35 7 24.1 100.04     Mostly Cloudy
13:00 10.8 2.3 56   34 12 24.1 100.08     LegendNANA
14:00 11.1 2.6 56   36 11 24.1 100.10     LegendNANA
15:00 11.2 2.7 56   31 9 24.1 100.14     Mostly Cloudy
16:00 11.6 3.0 55   36 12 24.1 100.15     LegendNANA
17:00 11.3 3.9 60   35 20 24.1 100.17     LegendNANA
18:00 10.7 3.7 62   35 22 24.1 100.16     Mostly Cloudy
19:00 10.4 2.9 59   34 17 24.1 100.22     LegendNANA
20:00 9.3 2.6 63   36 17 24.1 100.25     LegendNANA
21:00 8.4 3.4 71   36 17 24.1 100.27     Mostly Cloudy
22:00 7.7 3.1 73   35 10 24.1 100.34     LegendNANA
23:00 8.0 3.1 71   34 13 24.1 100.36     LegendNANA

Notes on Data Quality.

Legend

  • E = Estimated
  • M = Missing
  • NA = Not Available*
  • [empty] = Indicates an unobserved value
Date modified: